Погода в Верхней Бузиновке

Россия / Волгоградская область     49°03′37″N   43°12′42″E
темп.,
°C
ветер,
м/с
пор.,
м/с
влажн.,
%
обл.,
%
осадки,
мм/ч
давл.,
гПа
погр.,
м
11 апреля, вс
вс1100:00+4с5994100 0.0 1021267
03:00+4с5995100 0.0 1021302
06:00+5с61092100 0.0 1021367
09:00+6ссв5791100 0.0 1021422
12:00+10всв4580100 0.0 1022665
15:00+16вюв356199 0.0 1021972
18:00+16в46685 0.0 1021110
21:00+13св467392 0.0 102273
12 апреля, пн
пн1200:00+12всв5117924 0.0 1022175
03:00+11в512705 0.0 1022176
06:00+10в613635 0.0 1023206
09:00+16в812495 0.0 1023452
12:00+20вюв8114112 0.0 1023943
15:00+21вюв91138100 0.0 10231579
18:00+17вюв61343100 0.0 1024331
21:00+13в5125462 0.0 1025210
13 апреля, вт
вт1300:00+11в5116084 0.0 1025174
03:00+10в5116227 0.0 1025164
06:00+10в61554100 0.0 1025274
09:00+15вюв71543100 0.0 1025577
12:00+19вюв913315 0.0 10251129
15:00+21вюв911305 0.0 10241798
18:00+17вюв61238100 0.0 1023299
21:00+13в51145100 0.0 1024163
14 апреля, ср
ср1400:00+12в4952100 0.0 1023135
03:00+10в4105799 0.0 1022150
06:00+9в4105767 0.0 1022148
09:00+15в7104384 0.0 1021430
12:00+19вюв7103399 0.0 10201069
15:00+20вюв782855 0.0 10191910
18:00+17в484398 0.0 1018146
21:00+13в354860 0.0 101855
15 апреля, чт
чт1500:00+12в3456100 0.0 101749
03:00+10в3356100 0.0 101721
06:00+10вюв3555100 0.0 101768
09:00+16вюв463923 0.0 1016336
12:00+20юв45305 0.0 10151235
15:00+21юв45265 0.0 10142180
18:00+19всв22385 0.0 101312
21:00+15всв34525 0.0 101353